Hourly Data Report for September 10, 2018

ASHCROFT
BRITISH COLUMBIA
Current Station Operator: ECCC - MSC

50°42'30.005" N
121°16'53.001" W
327.00 m
1160515
71681
VAS

Download Data

Hourly Data (September 2018)
Hourly Data Report for September 10, 2018
TIME
LST
Temp Definition
°C
Dew Point Definition
°C
Rel Hum Definition
%
Precip. Amount Definition
mm

Wind Dir Definition
10's deg

Wind Spd Definition
km/h
Visibility Definition
km
Stn Press Definition
kPa
Hmdx Definition


Wind Chill Definition


Weather Definition


00:00 13.6 7.2 65 0.0 4 4   97.11     LegendNANA
01:00 12.5 6.8 68 0.0 1 4   97.10     LegendNANA
02:00 12.3 6.6 68 0.0 10 2   97.11     LegendNANA
03:00 11.0 7.1 77 0.0 5 1   97.11     LegendNANA
04:00 10.5 6.7 77 0.0 5 2   97.13     LegendNANA
05:00 9.5 6.6 82 0.0 13 3   97.15     LegendNANA
06:00 9.4 6.2 80 0.0 18 1   97.21     LegendNANA
07:00 9.4 6.9 84 0.0 19 1   97.24     LegendNANA
08:00 12.3 7.2 71 0.0 0 1   97.22     LegendNANA
09:00 13.6 7.4 66 0.0 32 3   97.25     LegendNANA
10:00 16.5 7.6 56 0.0 31 2   97.23     LegendNANA
11:00 20.9 3.5 32 0.0 22 11   97.13     LegendNANA
12:00 21.4 3.6 31 0.0 23 15   97.13     LegendNANA
13:00 22.2 3.3 29 0.0 24 13   97.07     LegendNANA
14:00 23.1 3.4 28 0.0 23 11   97.03     LegendNANA
15:00 22.5 2.5 27 0.0 20 14   96.98     LegendNANA
16:00 21.8 3.1 29 0.0 20 18   96.97     LegendNANA
17:00 21.7 3.5 30 0.0 20 19   97.00     LegendNANA
18:00 20.0 4.3 36 0.0 20 22   97.04     LegendNANA
19:00 18.4 4.4 39 0.0 20 20   97.09     LegendNANA
20:00 17.6 4.3 41 0.0 21 17   97.18     LegendNANA
21:00 17.1 4.3 43 0.0 21 14   97.18     LegendNANA
22:00 17.0 4.9 45 0.0 20 12   97.17     LegendNANA
23:00 16.7 5.1 46 0.0 20 9   97.19     LegendNANA

Notes on Data Quality.

Legend

  • E = Estimated
  • M = Missing
  • NA = Not Available*
  • [empty] = Indicates an unobserved value
Date modified: